Overview Statistics Trail Chart Weather Telemetry Raw packets
 

This is the latest recevied weather packets stored in our database for station/object W5ADC. If no packets are shown the sender has not sent any weather packets the latest 10 day(s).

<< 103 104 105 106 107 108 109 >>
Time Temp. Humidity Pressure Rain* Wind** Luminosity Snow
1787833884 25.56° C 81% 1011.6 hPa 0 mm - 27 W/m² -
1787833578 25.56° C 81% 1011.4 hPa 0 mm - 22 W/m² -
1787833274 25.56° C 81% 1011.3 hPa 0 mm - 18 W/m² -
1787832976 25.56° C 81% 1011.3 hPa 0 mm - 13 W/m² -
1787832666 25.56° C 82% 1011 hPa 0 mm - 9 W/m² -
1787832364 25.56° C 82% 1011 hPa 0 mm - 6 W/m² -
1787832064 25.56° C 82% 1011 hPa 0 mm - 4 W/m² -
1787831752 25.56° C 82% 1011.1 hPa 0 mm - 2 W/m² -
1787831451 25.56° C 81% 1010.7 hPa 0 mm - 1 W/m² -
1787831149 25.56° C 81% 1011 hPa 0 mm - 0 W/m² -
1787830846 25.56° C 81% 1010.8 hPa 0 mm - 0 W/m² -
1787830545 25.56° C 81% 1010.7 hPa 0 mm - 0 W/m² -
1787830244 25.56° C 81% 1010.9 hPa 0 mm - 0 W/m² -
1787829939 26.11° C 81% 1010.4 hPa 0 mm - 0 W/m² -
1787829638 26.11° C 80% 1010.7 hPa 0 mm - 0 W/m² -
1787829335 26.11° C 81% 1010.4 hPa 0 mm - 0 W/m² -
1787829030 26.11° C 80% 1010.5 hPa 0 mm - 0 W/m² -
1787828726 26.11° C 80% 1010.5 hPa 0 mm - 0 W/m² -
1787828422 26.11° C 80% 1010.3 hPa 0 mm - 0 W/m² -
1787828120 26.11° C 80% 1010.4 hPa 0 mm - 0 W/m² -
1787827820 26.11° C 80% 1010.5 hPa 0 mm - 0 W/m² -
1787827515 26.11° C 80% 1010.3 hPa 0 mm - 0 W/m² -
1787827215 26.67° C 79% 1010.4 hPa 0 mm - 0 W/m² -
1787826914 26.67° C 79% 1010.5 hPa 0 mm - 0 W/m² -
1787826610 26.67° C 79% 1010.5 hPa 0 mm - 0 W/m² -

* Rain latest hour (hover to see other rain measurements)
** Current wind speed in m/s (hover to see current wind gust speed)